Regional Weather Roundup
Issued by NWS Mt. Holly, NJ

Home | Current Version | Previous Version | Text Only | Print | Product List | Glossary On
Versions: 1 2 3 4 5 6 7 8 9 10 11 12 13 14 15 16 17 18 19 20 21 22 23 24 25 26 27 28 29 30 31 32 33 34 35 36 37 38 39 40 41 42 43 44 45 46 47 48 49 50
000
ASUS41 KPHI 020010
RWRPHI

REGIONAL WEATHER ROUNDUP
NATIONAL WEATHER SERVICE MOUNT HOLLY NJ
800 PM EDT MON SEP 01 2014

NOTE:  "FAIR" INDICATES FEW OR NO CLOUDS BELOW 12,000 FEET WITH NO
SIGNIFICANT WEATHER AND/OR OBSTRUCTIONS TO VISIBILITY.

 * = STATION DOES NOT REPORT PRECIPITATION (E.G. RAIN, SNOW, ETC.)
        OR FOG.

NJZ015>026-020100-
SOUTHERN NEW JERSEY

CITY           SKY/WX    TMP DP  RH WIND       PRES   REMARKS
POMONA         CLEAR     79  74  84 S7        29.96R
6HR MIN TEMP:  79; 6HR MAX TEMP:  89;

RIO GRANDE*    PTCLDY    79  72  78 CALM      29.97R
MILLVILLE      PTCLDY    79  75  87 CALM      29.96R
WRIGHTSTOWN    CLOUDY    80  75  83 S6        29.93R
MOUNT HOLLY    PTCLDY    80  74  81 SE3       29.94R
TRENTON        MOCLDY    82  71  69 S7        29.94R
6HR MIN TEMP:  81; 6HR MAX TEMP:  87;


$$
NJZ001>014-020100-
NORTHERN NEW JERSEY

CITY           SKY/WX    TMP DP  RH WIND       PRES   REMARKS
SUSSEX         CLEAR     78  72  81 CALM      29.94R
ANDOVER*         N/A     76  72  87 CALM      29.95R
MORRISTOWN     PTCLDY    82  72  69 SW3       29.93R
NEWARK         MOCLDY    85  71  63 S10       29.92R HX  90
TETERBORO      PTCLDY    83  71  67 S7        29.91R
CALDWELL       PTCLDY    83  69  62 S3        29.93R
SOMERVILLE     MOCLDY    79  73  82 CALM      29.92R
ALLAIRE*       CLEAR     79  72  78 S5        29.95S
TOMS RIVER*    PTCLDY    79  72  78 S3        29.96R

$$
PAZ043-044-047-054-055-060>062-066>071-020100-
EASTERN PENNSYLVANIA

CITY           SKY/WX    TMP DP  RH WIND       PRES   REMARKS
PHILADELPHIA   PTCLDY    84  73  69 S9        29.95R HX  90
6HR MIN TEMP:  84; 6HR MAX TEMP:  89;

NORTH PHILA    PTCLDY    82  71  69 CALM      29.96R
BLUE BELL      PTCLDY    82  72  69 CALM      29.95R
DOYLESTOWN     PTCLDY    81  71  71 S6        29.95R
QUAKERTOWN*    PTCLDY    77  73  88 CALM      29.97R
POTTSTOWN      CLEAR     81  72  74 S3        29.97R
LANCASTER      LGT RAIN  76  73  91 E3        29.95F
COATESVILLE    MOCLDY    77  77 100 CALM      29.98S
READING        MOCLDY    82  70  66 S3        29.93R
6HR MIN TEMP:  82; 6HR MAX TEMP:  88;

ALLENTOWN      PTCLDY    81  70  69 SW6       29.95R
6HR MIN TEMP:  81; 6HR MAX TEMP:  88;

MOUNT POCONO   PTCLDY    74  68  81 SW6       30.02R
6HR MIN TEMP:  74; 6HR MAX TEMP:  80;

HAZLETON       CLEAR     73  70  88 CALM      30.02F
WILKES BARRE   MOCLDY    80  68  66 S5        29.95R

$$
DEZALL-MDZ008-012-015-019-020-020100-
DELAWARE AND EASTERN MARYLAND

CITY           SKY/WX    TMP DP  RH WIND       PRES   REMARKS
WILMINGTON     CLEAR     81  74  79 S7        29.95S
6HR MIN TEMP:  81; 6HR MAX TEMP:  87;

DOVER          PTCLDY    83  74  74 E2        29.94R
GEORGETOWN     PTCLDY    84  72  67 S15       29.97R
6HR MIN TEMP:  84; 6HR MAX TEMP:  92;

EASTON         PTCLDY    86  77  74 CALM      30.00R HX  97
PATUXENT       CLEAR     82  72  71 SW8       29.96R
OCEAN CITY     MOCLDY    81  77  88 SW8       29.97R
WALLOPS ISLAND MOCLDY    79  69  71 SW3       29.98S
SALISBURY      PTCLDY    82  69  64 S8        29.97R

$$
PAZ001-021-NYZ056-072-MDZ011-DCZ001-020100-
OTHER NEARBY LOCATIONS

CITY           SKY/WX    TMP DP  RH WIND       PRES   REMARKS
HARRISBURG     PTCLDY    78  74  87 CALM      29.93S
STATE COLLEGE  MOCLDY    77  72  83 SW5       29.96S
WILLIAMSPORT   MOCLDY    79  69  71 CALM      29.92R
BINGHAMTON     CLEAR     74  68  81 S6        29.95F
NEW YORK CITY  PTCLDY    81  71  71 CALM      29.96R
BALTIMORE      PTCLDY    82  73  74 CALM      29.95S
WASHINGTON DC  MOCLDY    84  72  67 SE3       29.96S

$$



USA.gov is the U.S. government's official web portal to all federal, state and local government web resources and services.